Location: San Ignacio Observatory
(34.9291°N, 104.9425°W)
Time: 20:10:34
(UTC-06:00)

OTV 5 (USA 277) - Visible Passes

Search period start: 18 October 2018 00:00
Search period end: 28 October 2018 00:00
Orbit: 387 x 394 km, 54.5° (Epoch: 08 September)

Date Brightness Start Highest point End Pass type
(mag) Time Alt. Az. Time Alt. Az. Time Alt. Az.
18 Oct ? 05:25:55 52° NE 05:25:55 52° NE 05:28:53 10° ESE visible
19 Oct ? 06:04:58 23° WSW 06:05:07 23° SW 06:07:42 10° S visible
20 Oct ? 05:11:41 12° SSE 05:11:41 12° SSE 05:11:59 10° SSE visible
21 Oct ? 19:09:39 10° SSE 19:10:50 12° SE 19:10:50 12° SE visible
22 Oct ? 19:47:01 10° SW 19:49:46 62° S 19:49:46 62° S visible
23 Oct ? 18:51:11 10° S 18:53:53 26° SE 18:56:09 13° ENE visible
23 Oct ? 20:27:17 10° W 20:28:34 17° WNW 20:28:34 17° WNW visible
24 Oct ? 19:30:10 10° WSW 19:33:13 46° NW 19:34:46 24° NNE visible
25 Oct ? 18:33:42 10° SSW 18:36:49 60° SE 18:39:58 10° NE visible
25 Oct ? 20:11:39 10° WNW 20:13:02 12° NNW 20:13:16 12° NNW visible
26 Oct ? 19:13:44 10° W 19:16:22 23° NW 19:19:01 10° NNE visible
